• In Russia
  • List of Countries
  • For 7 days
  • Water Temperature
  • Satellite Maps
  • Weather Map
  • Weather Widgets
  • user-avatar
    Login

    Hourly Weather Innsbruck

    Today, 30 May, Tuesday

    Time Temperature Precipitation Wind Pressure Humidity
    00:00 +7°C° 0.2 mm 1 mps 596 mmHg 91%
    01:00 +6°C° 0 mm 1 mps 596 mmHg 90%
    02:00 +6°C° 0.1 mm 1 mps 596 mmHg 91%
    03:00 +6°C° 0.1 mm 1 mps 596 mmHg 91%
    04:00 +5°C° 0.1 mm 1 mps 595 mmHg 92%
    05:00 +7°C° 0.2 mm 1 mps 597 mmHg 88%
    06:00 +10°C° 0.2 mm 1 mps 598 mmHg 85%
    07:00 +11°C° 0.2 mm 0 mps 599 mmHg 82%
    08:00 +12°C° 0.5 mm 0 mps 600 mmHg 77%
    09:00 +15°C° 0.5 mm 1 mps 600 mmHg 72%
    10:00 +16°C° 0.5 mm 1 mps 601 mmHg 67%
    11:00 +18°C° 1.2 mm 1 mps 601 mmHg 67%
    12:00 +18°C° 1.2 mm 1 mps 601 mmHg 68%
    13:00 +18°C° 1.2 mm 1 mps 601 mmHg 69%
    14:00 +16°C° 2.1 mm 1 mps 601 mmHg 73%
    15:00 +16°C° 2.1 mm 1 mps 600 mmHg 76%
    16:00 +15°C° 2.1 mm 1 mps 600 mmHg 79%
    17:00 +14°C° 1.9 mm 1 mps 600 mmHg 84%
    18:00 +13°C° 1.9 mm 1 mps 599 mmHg 89%
    19:00 +11°C° 1.9 mm 0 mps 599 mmHg 93%
    20:00 +9°C° 1.1 mm 0 mps 599 mmHg 94%
    21:00 +8°C° 1.1 mm 0 mps 599 mmHg 96%
    22:00 +8°C° 1.1 mm 1 mps 599 mmHg 97%
    23:00 +8°C° 0.5 mm 1 mps 598 mmHg 97%

    Tomorrow, 31 May, Wednesday

    Time Temperature Precipitation Wind Pressure Humidity
    00:00 +7°C° 0.5 mm 1 mps 598 mmHg 97%
    01:00 +7°C° 0.5 mm 1 mps 598 mmHg 97%
    02:00 +7°C° 0.1 mm 1 mps 598 mmHg 97%
    03:00 +6°C° 0.1 mm 1 mps 598 mmHg 97%
    04:00 +6°C° 0.1 mm 1 mps 598 mmHg 97%
    05:00 +8°C° 0 mm 1 mps 599 mmHg 95%
    06:00 +8°C° 0 mm 0 mps 600 mmHg 93%
    07:00 +10°C° 0 mm 0 mps 601 mmHg 91%
    08:00 +11°C° 0.2 mm 0 mps 601 mmHg 86%
    09:00 +13°C° 0.2 mm 1 mps 602 mmHg 81%
    10:00 +14°C° 0.2 mm 1 mps 602 mmHg 76%
    11:00 +15°C° 0.8 mm 1 mps 602 mmHg 76%
    12:00 +15°C° 0.8 mm 1 mps 602 mmHg 76%
    13:00 +16°C° 0.8 mm 1 mps 602 mmHg 76%
    14:00 +15°C° 1.3 mm 1 mps 602 mmHg 77%
    15:00 +15°C° 1.3 mm 1 mps 601 mmHg 79%
    16:00 +14°C° 1.3 mm 1 mps 601 mmHg 81%
    17:00 +13°C° 1.2 mm 1 mps 601 mmHg 85%
    18:00 +12°C° 1.2 mm 1 mps 600 mmHg 89%
    19:00 +11°C° 1.2 mm 1 mps 600 mmHg 93%
    20:00 +9°C° 1.5 mm 0 mps 600 mmHg 95%
    21:00 +8°C° 1.5 mm 0 mps 600 mmHg 96%
    22:00 +7°C° 1.5 mm 0 mps 599 mmHg 98%
    23:00 +7°C° 0.7 mm 0 mps 599 mmHg 98%

    Day after tomorrow, 1 June, Thursday

    Time Temperature Precipitation Wind Pressure Humidity
    00:00 +7°C° 0.7 mm 0 mps 599 mmHg 98%
    01:00 +7°C° 0.7 mm 0 mps 599 mmHg 99%
    02:00 +6°C° 0.2 mm 0 mps 599 mmHg 99%
    03:00 +6°C° 0.2 mm 0 mps 599 mmHg 99%
    04:00 +6°C° 0.2 mm 0 mps 599 mmHg 99%
    05:00 +7°C° 0.1 mm 0 mps 599 mmHg 97%
    06:00 +8°C° 0.1 mm 0 mps 600 mmHg 95%
    07:00 +9°C° 0.1 mm 0 mps 600 mmHg 93%
    08:00 +10°C° 0.3 mm 0 mps 601 mmHg 89%
    09:00 +12°C° 0.3 mm 1 mps 601 mmHg 84%
    10:00 +13°C° 0.3 mm 1 mps 602 mmHg 80%
    11:00 +13°C° 0.6 mm 1 mps 602 mmHg 78%
    12:00 +14°C° 0.6 mm 1 mps 602 mmHg 76%
    13:00 +15°C° 0.6 mm 1 mps 602 mmHg 74%
    14:00 +15°C° 1.2 mm 1 mps 602 mmHg 75%
    15:00 +14°C° 1.2 mm 1 mps 602 mmHg 77%
    16:00 +14°C° 1.2 mm 1 mps 601 mmHg 78%
    17:00 +13°C° 1.1 mm 1 mps 601 mmHg 83%
    18:00 +12°C° 1.1 mm 1 mps 600 mmHg 88%
    19:00 +10°C° 1.1 mm 0 mps 600 mmHg 92%
    20:00 +9°C° 0.7 mm 0 mps 600 mmHg 94%
    21:00 +7°C° 0.7 mm 0 mps 599 mmHg 95%
    22:00 +6°C° 0.7 mm 0 mps 599 mmHg 97%
    23:00 +7°C° 0.4 mm 1 mps 599 mmHg 97%

    2 June, Friday

    Time Temperature Precipitation Wind Pressure Humidity
    00:00 +7°C° 0.4 mm 1 mps 598 mmHg 97%
    01:00 +6°C° 0.4 mm 1 mps 598 mmHg 97%
    02:00 +6°C° 0.2 mm 1 mps 598 mmHg 97%
    03:00 +6°C° 0.2 mm 1 mps 598 mmHg 96%
    04:00 +6°C° 0.2 mm 1 mps 598 mmHg 96%
    05:00 +7°C° 0.2 mm 1 mps 598 mmHg 94%
    06:00 +9°C° 0.2 mm 1 mps 599 mmHg 91%
    07:00 +10°C° 0.2 mm 1 mps 600 mmHg 88%
    08:00 +12°C° 0.2 mm 1 mps 600 mmHg 79%
    09:00 +14°C° 0.2 mm 1 mps 601 mmHg 71%
    10:00 +16°C° 0.2 mm 1 mps 602 mmHg 62%
    11:00 +16°C° 0.7 mm 1 mps 602 mmHg 63%
    12:00 +16°C° 0.7 mm 1 mps 602 mmHg 64%
    13:00 +18°C° 0.7 mm 1 mps 601 mmHg 66%
    14:00 +16°C° 1.6 mm 1 mps 601 mmHg 71%
    15:00 +15°C° 1.6 mm 1 mps 600 mmHg 76%
    16:00 +14°C° 1.6 mm 1 mps 600 mmHg 81%
    17:00 +13°C° 1.3 mm 1 mps 599 mmHg 85%
    18:00 +12°C° 1.3 mm 1 mps 599 mmHg 89%
    19:00 +11°C° 1.3 mm 1 mps 599 mmHg 93%
    20:00 +10°C° 0.5 mm 1 mps 598 mmHg 94%
    21:00 +9°C° 0.5 mm 1 mps 598 mmHg 95%
    22:00 +8°C° 0.5 mm 1 mps 598 mmHg 95%
    23:00 +7°C° 0.1 mm 1 mps 597 mmHg 95%

    3 June, Saturday

    Time Temperature Precipitation Wind Pressure Humidity
    00:00 +7°C° 0.1 mm 1 mps 597 mmHg 95%
    01:00 +6°C° 0.1 mm 1 mps 597 mmHg 95%
    02:00 +6°C° 0 mm 1 mps 596 mmHg 95%
    03:00 +5°C° 0 mm 1 mps 596 mmHg 95%
    04:00 +4°C° 0 mm 1 mps 595 mmHg 95%
    05:00 +7°C° 0 mm 1 mps 596 mmHg 91%
    06:00 +8°C° 0 mm 0 mps 597 mmHg 88%
    07:00 +10°C° 0 mm 0 mps 599 mmHg 84%
    08:00 +12°C° 0 mm 0 mps 600 mmHg 73%
    09:00 +15°C° 0 mm 0 mps 601 mmHg 62%
    10:00 +17°C° 0 mm 0 mps 602 mmHg 51%
    11:00 +19°C° 0.2 mm 1 mps 601 mmHg 51%
    12:00 +19°C° 0.2 mm 1 mps 601 mmHg 52%
    13:00 +19°C° 0.2 mm 1 mps 601 mmHg 53%
    14:00 +19°C° 0.6 mm 1 mps 600 mmHg 59%
    15:00 +18°C° 0.6 mm 1 mps 600 mmHg 65%
    16:00 +16°C° 0.6 mm 1 mps 600 mmHg 71%
    17:00 +15°C° 0.6 mm 1 mps 599 mmHg 77%
    18:00 +14°C° 0.6 mm 1 mps 599 mmHg 83%
    19:00 +12°C° 0.6 mm 0 mps 598 mmHg 89%
    20:00 +11°C° 0.2 mm 1 mps 598 mmHg 91%
    21:00 +10°C° 0.2 mm 1 mps 597 mmHg 93%
    22:00 +8°C° 0.2 mm 1 mps 596 mmHg 95%
    23:00 +8°C° 0.1 mm 1 mps 596 mmHg 95%

    4 June, Sunday

    Time Temperature Precipitation Wind Pressure Humidity
    00:00 +8°C° 0.1 mm 1 mps 596 mmHg 96%
    01:00 +7°C° 0.1 mm 2 mps 596 mmHg 96%
    02:00 +7°C° 0 mm 2 mps 596 mmHg 96%
    03:00 +7°C° 0 mm 2 mps 596 mmHg 96%
    04:00 +7°C° 0 mm 2 mps 596 mmHg 96%
    05:00 +8°C° 0 mm 2 mps 596 mmHg 92%
    06:00 +10°C° 0 mm 1 mps 597 mmHg 89%
    07:00 +12°C° 0 mm 1 mps 598 mmHg 85%
    08:00 +14°C° 0 mm 1 mps 598 mmHg 75%
    09:00 +16°C° 0 mm 1 mps 599 mmHg 64%
    10:00 +19°C° 0 mm 1 mps 600 mmHg 53%
    11:00 +18°C° 0.2 mm 2 mps 600 mmHg 54%
    12:00 +18°C° 0.2 mm 2 mps 600 mmHg 54%
    13:00 +19°C° 0.2 mm 2 mps 600 mmHg 55%
    14:00 +18°C° 0.9 mm 2 mps 599 mmHg 60%
    15:00 +17°C° 0.9 mm 2 mps 599 mmHg 66%
    16:00 +17°C° 0.9 mm 2 mps 598 mmHg 72%
    17:00 +15°C° 1.4 mm 2 mps 598 mmHg 78%
    18:00 +14°C° 1.4 mm 1 mps 597 mmHg 84%
    19:00 +13°C° 1.4 mm 1 mps 597 mmHg 90%
    20:00 +12°C° 1.5 mm 1 mps 597 mmHg 93%
    21:00 +10°C° 1.5 mm 1 mps 596 mmHg 95%
    22:00 +9°C° 1.5 mm 1 mps 596 mmHg 98%
    23:00 +9°C° 0.8 mm 1 mps 596 mmHg 98%
    Show more